Location: Steel City
(37.9981°N, 88.8792°W)
Time: 03:41:19
(UTC+00:00)

Daily predictions for brighter satellites

Satellite Brightness Start Highest point End
(mag) Time Altitude Azimuth Time Altitude Azimuth Time Altitude Azimuth
Cosmos 2084 Rocket 3.7 00:16:53 10° NNW 00:21:18 58° NE 00:25:47 10° SE
Cosmos 807 4.5 00:18:58 10° SSE 00:21:55 49° E 00:25:22 10° NNE
Cosmos 1937 Rocket 3.6 00:17:28 10° SSW 00:22:44 89° E 00:27:59 10° NNE
Lacrosse 5 rocket 4.4 00:22:33 10° NNW 00:22:58 10° NNW 00:23:24 10° NNW
Cosmos 1544 4.1 00:20:31 10° SSW 00:24:05 52° W 00:27:40 10° N
CZ-4 R/B 4.5 00:20:03 10° SSE 00:24:10 89° WSW 00:28:18 10° NNW
USA 234 4.4 00:21:41 10° ENE 00:26:20 20° ESE 00:30:57 10° SSE
Cosmos 2112 Rocket 4.1 00:23:36 10° NNW 00:28:50 86° WSW 00:34:04 10° SSE
CZ-2C R/B 1.3 00:25:53 10° WSW 00:29:30 52° S 00:32:43 11° ESE
Cosmos 1939 Rocket 3.5 00:25:50 10° S 00:29:54 65° W 00:34:02 10° NNW
Cosmos 1943 3.2 00:24:26 10° NNW 00:30:04 66° ENE 00:35:41 10° SSE
Cosmos 1680 Rocket 3.9 00:26:43 10° NNW 00:31:55 68° WSW 00:37:07 10° S
CSL-04 Debris 4.3 00:31:19 10° SSE 00:36:32 54° ENE 00:41:47 10° N
Iridium 4 Rocket 3.7 00:32:53 10° S 00:37:44 78° W 00:43:06 10° N
Cosmos 1975 Rocket 3.0 00:35:37 10° N 00:39:54 62° E 00:44:10 10° SSE
Helios 1A Rocket 4.1 00:37:08 10° S 00:41:04 46° W 00:45:03 10° NNW
CSL-04 Rocket 3.7 00:38:01 10° SSE 00:43:19 59° ENE 00:48:42 10° N
Cosmos 1174 4.5 00:42:32 10° S 00:47:02 57° ESE 00:52:44 10° NE
Cosmos 1603 4.0 00:46:20 10° NNW 00:51:58 69° WSW 00:57:31 10° SSE
HJ-1C 3.2 00:54:14 10° SSE 00:57:29 68° ENE 01:00:46 10° N
H-2A R/B 1.9 00:53:19 10° SSE 00:58:12 66° ENE 01:03:13 10° N
Meteor 1-21 4.4 00:52:48 10° NNW 00:58:25 78° W 01:03:59 10° S
Cosmos 1072 Rocket 4.4 00:53:43 10° S 00:59:53 73° E 01:06:12 10° N
Sich 1 Rocket 3.7 00:56:13 10° S 01:00:42 79° W 01:05:14 10° N
ATLAS 2AS CENTAUR R/B 3.8 00:54:33 10° SSE 01:00:49 27° ESE 01:07:10 10° NE
BREEZE-M TANK 3.9 00:46:22 10° WSW 01:01:33 76° NNW 01:05:14 13° ENE
Nadezhda 4 Rocket 4.4 00:57:23 10° N 01:03:02 38° ENE 01:07:55 13° SE
Meteor 1-12 Rocket 4.2 00:57:41 10° S 01:03:36 73° E 01:09:25 10° NNE
Cosmos 2034 Rocket 4.1 01:00:30 10° SSE 01:06:38 53° E 01:12:47 10° NNE
CENTAUR R/B 4.0 01:02:33 10° NNW 01:09:41 32° NE 01:14:15 21° E
CZ-4 R/B 3.3 01:08:54 10° SSW 01:12:43 32° W 01:16:31 10° NNW
Okean 1 Rocket 4.1 01:16:18 27° ENE 01:16:18 27° ENE 01:19:31 10° NNE
Okean 2 Rocket 3.1 01:12:36 10° S 01:17:06 83° W 01:21:37 10° N
Cosmos 1707 2.7 01:15:21 10° N 01:19:11 82° W 01:23:00 10° S
Ariane Rocket 3.3 01:16:43 25° SE 01:19:16 46° ENE 01:24:06 10° N
Cosmos 1300 Rocket 3.6 01:15:24 10° S 01:19:47 79° W 01:24:13 10° N
USA 238 DEB 4.2 01:18:50 10° NNW 01:25:51 49° NE 01:29:18 30° ESE
USA 238 4.2 01:18:57 10° NNW 01:25:57 48° NE 01:29:22 30° ESE
DELTA 2 R/B (1) 4.2 01:21:06 10° W 01:26:23 47° SSW 01:29:07 26° SSE
ARGOS 3.1 01:22:10 10° SSE 01:27:31 87° WSW 01:32:56 10° NNW
In-Cosmos 22 4.0 01:24:05 10° N 01:29:25 83° E 01:34:17 13° S
SJ-6B 3.1 01:33:13 44° NE 01:33:13 44° NE 01:36:22 10° N
SL-08 RB Rocket 3.6 01:30:56 26° SSE 01:33:33 80° ENE 01:38:08 10° N
CZ-2C R/B 4.4 01:30:46 10° SSW 01:35:37 40° W 01:40:46 10° NNW
CZ-2C R/B 2.6 01:30:05 10° NNE 01:35:39 74° ESE 01:41:16 10° S
Cosmos 1634 Rocket 4.3 01:37:16 38° ESE 01:38:06 40° E 01:43:48 10° NNE
USA 186 2.3 01:43:19 53° NNW 01:43:19 53° NNW 01:45:55 10° NNW
Cosmos 1536 Rocket 3.5 01:39:37 10° N 01:44:06 89° WSW 01:45:33 43° S
SPOT 3 Rocket 4.3 01:44:55 34° NE 01:44:55 34° NE 01:49:01 10° N
Cosmos 2285 Rocket 3.9 01:41:48 10° SSW 01:48:05 80° ESE 01:54:26 10° NNE
Cosmos 1025 Rocket 3.7 01:44:39 10° NNW 01:48:57 56° W 01:51:49 20° SSW
Cosmos 1844 3.8 01:46:09 10° SSW 01:51:52 76° WNW 01:57:32 10° NNE
NOSS 3-2 (A) 4.0 01:45:10 10° NNW 01:52:56 76° ENE 01:56:29 39° SE
Meteor 2-13 Rocket 4.4 01:48:04 10° N 01:54:11 64° E 01:55:29 51° SE
ISS -0.9 01:52:47 10° NW 01:54:35 14° NNW 01:55:46 12° N
Cosmos 1844 Rocket 3.3 01:51:04 10° SW 01:56:29 54° WNW 02:01:58 10° NNE
Cosmos 1092 Rocket 3.8 01:57:49 10° N 02:04:00 73° E 02:05:04 60° SE
Cosmos 2195 Rocket 4.3 01:58:42 10° N 02:04:55 66° E 02:05:23 63° ESE
Cosmos 2026 Rocket 4.0 02:02:21 10° N 02:08:36 60° E 02:08:36 60° E
MetOp-A 4.1 02:07:40 56° S 02:08:48 77° WSW 02:14:11 10° NNW
CZ-2C R/B 3.1 02:05:36 10° W 02:07:04 21° WSW 02:07:04 21° WSW
USA 234 3.1 02:04:41 18° NE 02:09:49 88° SE 02:16:22 10° SW
Cosmos 1125 Rocket 4.4 02:05:59 10° SW 02:11:06 49° WNW 02:16:17 10° N
Milstar 3 Cent rocket 3.6 02:10:30 10° SW 02:14:14 25° SSW 02:14:14 25° SSW
Cosmos 1428 Rocket 4.5 02:13:18 10° N 02:19:01 65° NE 02:19:01 65° NE
BREEZE-M DEB (TANK) 4.4 02:03:01 10° WNW 02:21:26 76° SW 02:22:39 62° SSE
Cosmos 1833 Rocket 4.4 02:19:14 10° N 02:21:52 21° NNE 02:21:52 21° NNE
NOSS 3-4 (A) 3.4 02:22:44 10° SW 02:28:35 75° NW 02:34:47 10° NNE
NOSS 3-2 (C) 4.0 02:20:50 10° NNW 02:28:39 81° ENE 02:29:49 68° SE
NOSS 3-4 (C) 3.4 02:22:51 10° SW 02:28:41 76° NW 02:34:52 10° NNE
Resurs 01 Rocket 3.6 02:36:49 23° N 02:36:49 23° N 02:38:29 10° N
ATLAS 2AS CENTAUR R/B 3.3 02:43:24 10° SW 02:51:15 67° NW 02:59:10 10° NNE
BREEZE-M DEB (TANK) 4.3 02:49:15 10° WNW 02:53:54 63° SW 02:54:11 62° SSW
CENTAUR R/B 3.2 02:52:47 10° NW 03:01:08 73° WSW 03:01:27 72° SW
Cosmos 2082 Rocket 4.3 03:03:49 10° N 03:05:22 18° N 03:05:22 18° N
ATLAS 3B R/B 3.7 03:02:44 10° NNW 03:07:18 38° N 03:07:18 38° N
USA 267 3.9 08:17:46 10° NE 08:22:28 51° NE 08:22:28 51° NE
Cosmos 1697 Rocket 4.2 08:48:35 27° N 08:48:35 27° N 08:51:14 10° NNE
Cosmos 1980 Rocket 3.0 08:52:46 45° NNE 08:52:46 45° NNE 08:56:36 10° NNE
BREEZE-M DEB (TANK) 4.1 08:55:57 61° S 08:56:46 64° SSE 09:01:18 10° ENE
USA 234 4.4 08:50:56 10° E 08:56:53 39° NNE 09:02:51 10° NNW
Cosmos 2322 Rocket 4.2 08:55:32 17° SE 08:58:11 23° E 09:02:35 10° NE
Cosmos 2263 Rocket 3.9 08:56:22 10° N 09:01:20 31° ENE 09:06:18 10° ESE
SL-4 R/B 3.8 09:08:18 33° E 09:08:18 33° E 09:11:32 10° ENE
SL-16 R/B 3.5 09:05:31 28° SE 09:07:18 35° ESE 09:12:24 10° NE
Cosmos 2228 Rocket 4.4 09:09:42 37° NE 09:09:42 37° NE 09:12:33 10° NNE
Cosmos 1934 Rocket 3.9 09:05:56 10° N 09:12:01 82° E 09:12:49 68° SSE
ADEOS II 4.0 09:07:31 10° N 09:09:06 18° NNW 09:09:06 18° NNW
ARIANE 5 R/B 3.6 09:09:45 10° N 09:12:41 34° N 09:12:41 34° N
CZ-2C R/B 3.9 09:16:12 10° NNE 09:20:55 35° E 09:24:58 13° SSE
ASTEX 1 4.2 09:15:56 10° N 09:19:17 42° N 09:19:17 42° N
IDEFIX/ARIANE 42P 2.9 09:15:52 10° N 09:20:03 54° NNW 09:20:03 54° NNW
Cosmos 1763 Rocket 4.5 09:21:34 30° SSE 09:23:37 44° ESE 09:28:39 10° NNE
SJ 16-02 2.5 09:25:29 10° N 09:29:41 43° ENE 09:33:52 10° SE
Cosmos 44 4.5 09:33:21 28° NNW 09:33:21 28° NNW 09:36:10 10° NNE
Meteor 1-14 Rocket 4.0 09:26:45 10° NNW 09:32:16 73° W 09:32:16 73° W
PSLV R/B 4.5 09:29:21 10° NNE 09:33:22 44° E 09:34:43 32° SE
Meteor 2-6 Rocket 4.1 09:32:38 52° S 09:34:05 88° ESE 09:39:55 10° N
DEBRIS 4.2 09:34:58 28° NE 09:34:58 28° NE 09:38:44 10° E
H-2A R/B 2.7 09:30:50 10° SSE 09:35:05 56° ENE 09:39:27 10° N
Cosmos 1238 Rocket 3.8 09:30:56 10° NNW 09:37:25 68° W 09:39:04 48° SSW
Cosmos 1605 Rocket 4.0 09:32:54 10° N 09:39:20 86° E 09:45:44 10° S
Cosmos 1535 Rocket 4.5 09:34:26 10° NNW 09:40:44 62° W 09:43:11 38° SSW
BREEZE-M DEB (TANK) 4.3 09:39:27 43° W 09:42:17 77° NNW 10:08:38 10° ENE
Landsat 5 3.7 09:41:06 10° SSE 09:45:36 78° ENE 09:50:07 10° N
Lacrosse 5 3.8 09:45:25 16° NNW 09:45:53 17° NNW 09:49:06 10° NNE
ERS-2 3.5 09:44:44 10° SE 09:48:08 38° ENE 09:51:34 10° N
Helios 1B 4.4 09:48:16 75° W 09:48:16 75° W 09:52:29 10° NNW
PAYLOAD A 3.9 09:43:29 10° NNE 09:48:11 75° ESE 09:50:29 30° S
X-37B 2.4 09:51:11 26° N 09:51:12 26° N 09:53:56 10° ENE
Cosmos 468 Rocket 3.9 09:50:04 41° SSW 09:51:59 86° WNW 09:57:18 10° NNE
ALOS 4.1 09:56:34 10° NE 10:00:42 31° E 10:04:50 10° SSE
CSL-04 DEB 4.4 09:59:52 10° S 10:04:07 67° WSW 10:08:27 10° NNW
USA 267 4.5 10:01:20 10° NNE 10:06:41 28° NNW 10:09:48 19° WNW
Cosmos 1536 3.8 10:03:32 10° N 10:07:30 49° E 10:11:26 10° SSE
NOSS 3-3 (C) 4.5 10:06:41 32° W 10:08:18 37° NW 10:14:10 10° NNE
Cosmos 1727 Rocket 3.9 10:04:11 10° SSW 10:10:30 72° W 10:16:51 10° N
Meteor 1-11 Rocket 3.7 10:09:13 10° N 10:14:59 90° N 10:20:37 10° S
Cosmos 2100 Rocket 4.4 10:09:38 10° N 10:15:59 66° E 10:22:18 10° SSE
Cosmos 921 Rocket 4.4 10:20:07 21° NW 10:20:07 21° NW 10:22:48 10° NNW
Cosmos 1812 4.0 10:21:49 24° WNW 10:21:49 24° WNW 10:24:19 10° NNW
deb Chang Zheng 4 3.8 10:17:02 10° NNE 10:21:19 71° ESE 10:25:33 10° S
SL-8 R/B 3.7 10:17:55 18° NW 10:21:26 81° NE 10:26:11 10° ESE
Meteor 1-27 Rocket 3.8 10:16:18 10° SSW 10:22:13 73° W 10:28:08 10° N
Cosmos 2360 Rocket 2.5 10:19:11 10° SSW 10:24:47 70° ESE 10:30:26 10° NNE
Cosmos 1898 Rocket 3.4 10:21:06 10° NNW 10:26:23 79° WSW 10:31:39 10° SSE
ATLAS 2AS CENTAUR R/B 4.0 10:19:41 10° NNW 10:26:45 44° NE 10:33:14 10° ESE
ADEOS Rocket 3.2 10:20:34 10° SSE 10:27:33 85° WSW 10:33:50 10° NNW
Cosmos 1707 Rocket 3.7 10:26:34 17° SSW 10:29:41 47° W 10:33:53 10° N
Cosmos 1666 2.7 10:26:06 10° NNW 10:29:50 55° W 10:33:31 10° S
Cosmos 1459 Rocket 4.1 10:24:58 10° N 10:31:05 80° E 10:37:06 10° S
Cosmos 1980 Rocket 4.0 10:34:34 12° WNW 10:35:45 13° NW 10:38:13 10° NNW
SAR-Lupe-4 3.9 10:32:26 10° SSE 10:35:59 68° ENE 10:39:33 10° N
Cosmos 858 Rocket 4.4 10:31:37 10° NNW 10:36:50 89° WSW 10:42:02 10° SSE
FENGYUN 3A 3.8 10:32:17 10° NNE 10:37:42 80° ESE 10:43:06 10° S
Cosmos 2208 Rocket 4.0 10:32:52 10° SSW 10:38:08 88° ESE 10:43:22 10° NNE
USA 234 3.3 10:33:11 10° SSE 10:39:39 64° SW 10:46:07 10° NW
Cosmos 2322 Rocket 2.6 10:37:25 15° SW 10:41:53 44° WNW 10:47:20 10° N
USA 32 4.3 10:39:49 10° NNW 10:44:50 47° W 10:49:50 10° SSW
FALCON 9 DEB 4.4 10:43:18 19° WNW 10:44:52 27° NNW 10:47:51 10° NNE
Cosmos 2263 Rocket 2.7 10:40:09 10° NW 10:45:14 35° WSW 10:50:19 10° SSW
SL-4 R/B 3.0 10:43:55 18° W 10:46:54 39° NNW 10:51:25 10° NE
SAR-Lupe-1 4.0 10:44:34 10° SSE 10:48:06 85° WSW 10:51:42 10° NNW
Meteor 1-4 Rocket 4.4 10:50:45 13° WNW 10:50:45 13° WNW 10:52:25 10° NW
Cosmos 1733 Rocket 2.9 10:46:34 10° NNW 10:50:53 67° W 10:55:09 10° S
Cosmos 1844 Rocket 3.7 10:45:50 10° NNW 10:51:20 51° ENE 10:56:48 10° SE
SL-16 R/B 3.1 10:47:26 15° WSW 10:51:23 31° WNW 10:56:22 10° N
Cosmos 1937 Rocket 3.4 10:46:41 10° NNW 10:51:46 63° WSW 10:56:49 10° S
Cosmos 2237 4.3 10:47:21 10° SW 10:52:59 62° WNW 10:58:40 10° NNE
Cosmos 1814 Rocket 4.0 10:50:30 10° SSW 10:55:38 65° WNW 11:00:53 10° NNE
ADEOS 3.7 10:50:58 10° N 10:56:01 52° WNW 11:01:03 10° SSW
Cosmos 44 Rocket 3.4 10:51:51 10° SW 10:56:26 52° NW 11:01:09 10° NNE
Cosmos 841 Rocket 3.7 10:51:49 10° SW 10:56:51 49° WNW 11:01:57 10° N
CZ-2C R/B 3.5 10:54:43 10° NNW 10:58:56 26° WNW 11:03:10 10° WSW
Gbstr 26 Del rocket 4.3 10:55:27 10° NW 11:03:22 76° SW 11:10:07 10° SE
Cosmos 1862 Rocket 3.9 10:59:44 10° SSW 11:03:54 42° W 11:08:03 10° N
Cosmos 2173 Rocket 4.1 10:57:57 10° NNW 11:04:06 55° W 11:10:17 10° SSW
SJ-12 4.0 11:00:36 10° NNE 11:04:45 86° ESE 11:08:53 10° SSW
CZ-4B R/B 2.1 11:04:00 10° SSW 11:06:46 28° W 11:09:35 10° NW
SJ 16-02 2.9 11:05:28 10° WNW 11:07:50 14° W 11:10:11 10° SW
Cosmos 1743 2.6 11:05:31 10° NNW 11:09:19 73° W 11:13:05 10° S
H-2A R/B 3.9 11:09:52 10° WSW 11:11:24 12° W 11:12:56 10° WNW
Cosmos 2219 Rocket 2.8 11:09:34 10° S 11:15:08 65° ESE 11:20:47 10° NNE
Cosmos 1689 Rocket 2.0 11:12:18 10° S 11:15:13 61° W 11:18:09 10° NNW
COSMOS 2428 3.3 11:16:14 10° S 11:21:51 64° ESE 11:27:31 10° NNE
